Lapse_Rate
6.5 6.7 6.5 6.4 6.5 6.7 6.5 6.2 6.3 6.2 5.9 5.9 6.0 6.2 6.3 6.4 6.3 6.3 6.4 6.4 6.3 6.3 6.3 6.2 6.3 6.3 6.3 6.1 5.7 5.8 5.9 5.7 5.5 5.6 5.8 6.0 6.2 6.3 6.5 7.1 6.8 7.0 7.7 7.7 7.5 7.6 7.7
6.5 6.5 6.6 6.5 6.6 6.7 6.8 6.5 6.3 6.2 6.1 6.0 6.1 6.1 6.1 6.0 5.9 5.9 5.9 5.9 5.9 6.1 6.2 6.3 6.3 6.2 6.0 6.0 5.7 5.9 5.9 5.9 6.0 6.0 5.9 6.0 6.3 6.1 6.6 6.7 6.7 6.8 7.3 7.5 7.5 7.6 7.8
6.6 6.6 6.6 6.5 6.6 6.8 7.0 6.9 6.6 6.4 6.1 6.2 5.9 6.0 5.6 6.1 5.8 5.7 5.7 5.6 6.4 6.0 6.3 6.1 6.4 6.2 5.8 5.8 5.7 5.6 6.0 5.9 6.1 6.3 6.2 6.0 6.2 6.0 6.0 6.0 6.1 7.1 7.1 7.4 7.6 7.7 7.7
6.5 6.6 6.6 6.5 6.6 6.7 7.0 7.1 6.9 7.0 6.5 6.1 5.9 5.9 5.9 5.8 6.0 5.7 5.7 5.5 5.6 5.7 6.3 6.4 6.2 6.4 6.4 5.7 6.4 6.0 6.1 6.1 6.1 6.3 6.1 6.1 6.2 6.1 5.9 6.1 6.5 6.6 6.5 7.1 7.5 7.6 7.7
6.6 6.5 6.6 6.4 6.4 6.6 6.8 7.0 7.0 7.1 7.0 6.7 6.4 6.1 5.9 5.9 6.0 5.8 5.8 6.2 5.4 5.6 5.9 6.4 6.5 6.5 6.6 6.0 6.7 6.5 6.1 6.3 6.3 6.5 6.5 6.4 6.3 6.1 6.3 6.4 6.7 6.5 6.7 7.0 7.3 7.5 7.5
6.6 6.6 6.4 6.4 6.5 6.5 6.7 6.7 7.0 6.9 6.9 7.0 7.1 6.9 6.6 6.1 6.1 6.3 6.3 6.4 6.4 6.5 6.5 6.1 6.6 6.6 6.5 6.5 6.7 6.6 6.6 6.2 6.5 6.6 6.6 6.4 6.4 6.4 6.6 6.5 6.5 6.8 7.2 7.2 7.3 7.5 7.5
6.5 6.7 6.6 6.4 6.5 6.5 6.5 6.7 6.8 6.9 6.9 7.0 7.2 7.4 7.2 7.1 6.7 6.4 6.3 6.6 6.6 6.5 7.0 6.6 6.1 6.3 6.7 6.6 6.7 6.7 6.7 6.5 6.4 6.7 6.6 6.4 6.6 6.7 6.8 6.9 6.9 7.2 7.5 7.5 7.3 7.5 7.6
6.6 6.7 6.8 6.6 6.4 6.6 6.5 6.6 6.7 6.8 6.9 7.0 7.2 7.4 7.4 7.5 7.2 6.8 6.8 6.9 6.7 6.8 6.7 7.0 6.7 6.5 6.5 6.5 6.4 6.6 6.8 6.7 6.5 6.6 6.7 6.8 6.9 7.0 6.9 6.9 7.0 7.2 7.3 7.1 7.2 7.3 7.2
6.8 6.6 6.7 6.8 6.7 6.5 6.6 6.5 6.6 6.8 6.8 6.8 6.9 7.2 7.4 7.5 7.5 7.4 7.2 7.2 7.2 7.3 7.0 6.9 7.1 7.2 7.1 7.1 7.1 6.9 6.9 7.0 6.9 6.6 6.6 6.9 7.1 7.0 7.0 6.9 7.0 7.3 7.3 7.2 7.4 7.1 7.1
6.7 6.8 6.7 6.7 6.9 6.9 6.6 6.5 6.5 6.6 6.8 6.9 6.8 6.9 7.4 7.6 7.3 7.5 7.7 7.7 7.6 7.5 7.5 7.5 7.3 7.3 7.4 7.5 7.4 7.4 7.5 7.2 7.1 7.3 7.0 7.0 7.2 7.0 6.9 6.9 7.2 7.2 7.2 7.2 7.2 7.0 6.9
6.6 6.7 6.7 6.7 6.7 6.9 6.9 6.6 6.5 6.3 6.5 6.7 6.8 6.9 7.2 7.3 7.4 7.3 7.5 7.9 7.8 7.6 5.9 7.6 7.4 7.2 7.3 7.6 7.6 7.6 7.6 7.5 7.7 7.5 7.5 7.3 7.2 7.0 6.9 6.9 7.0 7.1 7.1 7.0 7.0 6.9 6.7
6.7 6.6 6.6 6.6 6.7 6.8 6.7 6.7 6.7 6.4 6.4 6.5 6.7 6.9 7.1 7.3 7.3 7.5 7.6 7.7 7.6 7.4 6.7 7.7 7.6 7.5 7.4 7.6 7.8 7.5 7.6 7.8 7.8 7.7 7.8 7.4 7.1 7.1 7.1 7.0 7.0 7.0 7.0 6.8 6.8 6.6 5.0
6.9 6.6 6.6 6.5 6.5 6.8 7.0 6.7 6.7 6.7 6.5 6.5 6.6 7.0 7.1 7.2 7.3 7.4 7.7 7.7 7.7 7.2 7.4 7.8 7.8 7.8 7.8 7.8 7.8 7.7 7.7 7.8 7.7 7.5 7.4 7.1 6.9 6.9 6.8 6.9 6.9 6.9 6.7 6.4 4.7 4.1 3.3
6.8 6.8 6.6 6.7 6.5 6.6 6.7 6.9 6.8 6.7 6.8 6.5 6.7 6.8 7.2 7.1 7.3 7.4 7.5 7.8 7.6 6.8 7.1 7.9 7.9 7.8 7.7 7.8 7.7 7.6 7.5 7.6 7.6 7.8 7.5 7.2 6.7 6.8 6.8 6.7 6.7 6.6 6.5 6.4 4.6 3.5 3.8
6.7 6.8 6.7 6.7 6.7 6.7 6.7 6.7 6.9 6.9 6.8 6.9 6.7 6.8 7.1 7.3 7.3 7.5 7.7 7.9 7.4 7.4 7.5 7.2 7.6 8.0 7.8 7.6 7.5 7.4 7.3 7.4 7.4 7.4 7.5 7.1 6.8 6.7 6.5 6.3 6.2 6.2 6.0 6.0 5.9 5.2 4.7
6.8 6.7 6.8 6.8 6.6 6.8 6.7 6.7 6.6 6.8 7.0 6.9 6.7 6.7 6.9 7.1 7.2 7.4 7.7 7.6 7.1 7.3 7.4 7.6 7.4 7.2 7.3 7.3 7.3 7.3 7.2 7.4 7.4 7.3 7.3 7.0 6.7 6.4 6.3 6.1 6.0 5.9 6.0 5.9 6.1 5.0 5.1
7.0 6.9 6.9 6.8 6.8 6.7 6.8 6.6 6.6 6.6 6.8 7.0 7.0 7.2 7.0 6.8 6.9 7.0 7.5 7.6 6.9 7.0 7.3 7.5 7.4 7.4 7.4 7.3 7.3 7.2 7.2 7.2 7.3 7.3 7.2 7.1 7.0 6.5 6.5 6.4 6.4 6.2 6.1 6.1 6.0 5.8 4.2
6.8 6.9 7.0 7.0 6.9 6.9 6.6 6.6 6.6 6.5 6.6 6.7 7.1 7.1 7.0 7.0 6.8 6.7 6.6 6.6 6.7 7.0 7.2 7.3 7.0 7.1 6.9 6.9 7.0 7.1 7.0 7.1 7.0 7.0 6.9 6.8 6.5 6.3 6.2 6.2 6.1 5.9 5.8 5.6 5.8 5.4 5.5
6.9 6.9 6.9 7.0 7.1 7.0 7.0 6.8 6.6 6.4 6.4 6.6 6.6 6.8 7.0 7.0 7.0 6.6 6.3 6.2 6.3 6.4 6.6 6.8 6.9 6.9 7.1 7.1 7.0 6.9 6.9 6.7 6.6 6.5 6.4 6.3 6.1 6.1 5.9 5.8 5.9 5.8 5.9 5.5 5.6 5.5 5.8
7.0 6.8 6.8 7.0 7.0 7.0 7.0 7.0 7.0 6.5 6.3 6.4 6.3 6.2 6.2 6.7 6.8 6.7 6.8 6.5 6.3 6.2 6.1 6.2 6.2 6.3 6.4 6.5 6.5 6.5 6.4 6.5 6.5 6.5 6.4 6.2 6.1 6.2 6.3 6.2 5.9 6.0 6.1 5.7 5.2 5.2 5.4
7.2 7.0 6.8 6.7 6.9 7.0 6.9 6.9 7.0 6.9 6.6 6.3 6.2 6.1 5.9 5.9 6.0 6.3 6.6 6.5 6.7 6.6 6.4 6.2 6.0 5.9 5.8 5.9 6.1 6.2 6.1 6.1 6.0 5.9 5.8 5.6 5.6 5.7 5.7 5.6 5.4 5.8 6.1 5.9 5.8 6.3 5.8
7.0 7.1 7.1 6.8 6.6 6.6 6.8 6.7 6.7 6.7 6.7 6.5 6.1 6.0 6.1 5.9 5.6 5.6 5.8 5.9 6.1 6.1 6.2 6.4 6.4 6.4 6.4 5.9 5.7 5.5 5.5 5.4 5.5 5.5 5.3 5.2 5.2 5.3 5.8 5.5 5.3 5.3 5.7 5.5 5.6 6.0 5.4
7.0 7.0 7.0 7.0 6.8 6.6 6.5 6.7 6.6 6.4 6.4 6.4 6.3 6.1 6.0 6.0 5.9 5.7 5.4 5.2 5.3 5.4 5.5 5.6 5.6 5.6 5.7 5.6 5.5 5.5 5.6 5.5 5.3 5.1 5.0 4.8 4.8 4.7 4.8 4.5 4.1 4.5 6.4 6.2 6.2 6.1 5.8
7.0 7.1 7.0 6.9 6.9 6.8 6.6 6.3 6.4 6.4 6.3 6.0 5.9 6.0 6.0 5.9 5.9 5.7 5.6 5.4 5.3 5.2 5.2 5.1 5.2 5.2 5.3 5.3 5.2 5.2 5.1 5.1 5.2 5.1 5.0 4.8 4.6 4.3 4.4 4.4 3.1 5.2 5.6 5.9 6.0 6.0 5.8
6.8 7.0 7.1 6.8 6.7 6.6 6.6 6.5 6.2 6.2 6.1 5.9 5.6 5.6 5.6 5.8 5.8 6.0 5.7 5.7 5.6 5.4 5.1 5.0 5.0 5.0 5.0 5.1 5.0 5.0 5.2 5.2 5.5 5.4 4.9 4.7 4.2 4.3 4.4 4.1 4.9 5.6 5.9 6.1 5.9 5.6 5.8
6.7 6.9 6.9 6.7 6.6 6.6 6.5 6.4 6.2 6.1 6.0 5.8 5.7 5.5 5.6 5.4 5.6 5.7 5.6 5.4 5.2 5.3 5.4 5.4 5.3 5.2 5.1 5.0 4.8 4.7 5.0 4.9 4.9 5.1 5.4 5.1 4.4 4.1 4.1 4.0 3.7 5.1 5.5 5.5 5.7 5.2 5.9
6.5 6.6 6.7 6.6 6.4 6.5 6.3 6.2 6.0 5.9 5.8 5.8 5.6 5.5 5.3 5.2 5.4 5.2 5.4 5.4 5.1 4.7 4.9 5.1 5.0 5.0 4.8 4.8 4.6 4.4 4.6 4.8 4.8 4.9 5.3 5.4 4.8 4.5 4.7 4.2 4.4 5.1 5.2 5.4 5.1 5.7 5.5
6.2 6.0 6.2 6.1 6.2 6.3 6.0 5.7 5.7 5.7 5.5 5.6 5.4 5.3 5.2 5.2 5.1 5.1 5.0 4.9 5.0 4.7 4.5 4.7 4.5 4.9 4.8 4.6 4.3 4.5 4.0 4.5 4.7 4.7 5.1 5.2 5.4 5.1 4.8 4.3 4.5 5.2 5.3 5.3 5.4 5.4 5.4
5.7 5.8 5.8 5.7 5.5 5.6 5.6 5.4 5.4 5.3 5.4 5.2 5.2 5.1 5.1 5.0 4.9 4.8 4.8 4.7 4.9 4.7 4.5 4.3 4.4 4.6 4.5 4.7 4.5 4.3 4.3 4.3 4.8 4.7 5.3 5.1 5.3 5.6 5.6 5.5 5.7 5.6 5.1 5.0 5.0 5.0 5.0
Wind_Speed
19 19 18 15 13 12 12 13 13 13 14 15 15 14 18 18 16 13 15 15 16 18 13 10 14 17 5 3 4 5 6 7 5 4 4 4 3 5 3 6 4 3 3 5 3 5 4
21 21 20 18 15 12 12 12 12 11 11 11 11 10 16 15 15 14 14 14 11 10 9 12 10 3 1 4 3 12 9 5 5 4 4 5 2 4 5 5 7 6 5 6 2 3 3
22 22 22 22 18 14 11 12 12 10 10 9 9 8 10 12 14 13 10 12 11 12 14 11 6 3 2 7 4 4 9 6 4 5 2 4 1 2 3 5 5 8 6 3 2 2 2
23 23 23 23 21 17 14 12 13 11 9 7 7 8 7 6 8 9 8 17 8 9 10 6 7 3 4 5 8 5 5 4 7 6 5 2 2 1 2 2 5 4 5 4 2 3 2
24 24 24 24 23 20 17 14 12 12 9 7 5 5 4 3 2 6 6 8 6 3 1 2 3 2 0 3 1 7 7 5 3 2 2 1 2 1 3 5 4 2 3 4 2 3 2
23 24 25 25 24 22 20 17 13 11 10 10 8 5 4 2 0 2 6 7 8 2 5 5 6 1 1 3 2 2 6 7 3 4 3 0 4 3 4 5 5 6 4 3 5 5 2
22 23 24 25 25 23 22 19 16 13 11 10 9 8 4 3 3 2 7 4 3 2 4 5 5 4 3 3 5 3 2 4 4 2 4 2 6 2 5 4 4 3 4 6 1 2 3
22 23 24 25 25 24 24 22 18 15 14 11 8 9 8 3 6 4 4 3 2 1 2 8 2 0 2 2 2 1 6 5 5 4 5 6 2 2 5 5 3 5 6 1 2 3 2
21 22 24 25 25 25 24 22 20 17 15 14 11 11 12 9 2 1 3 4 1 2 2 2 2 3 3 3 2 2 2 4 5 5 4 6 2 4 2 5 5 4 7 3 3 3 0
20 21 22 24 26 26 24 23 22 18 15 13 13 10 8 8 1 2 2 2 0 1 4 8 5 3 1 1 4 2 2 1 6 6 5 5 3 3 3 5 4 2 5 2 5 4 2
21 21 22 23 25 27 28 26 23 20 16 11 11 14 4 3 3 1 2 2 2 2 5 7 4 2 3 4 3 6 4 7 6 4 5 1 4 6 7 3 2 2 2 3 2 4 4
21 22 23 24 25 25 27 28 26 22 17 11 8 11 8 2 2 2 4 4 3 6 1 4 2 2 2 3 2 1 4 6 4 7 8 3 1 3 1 1 3 3 4 6 5 3 2
20 21 23 24 25 25 26 27 28 25 19 11 6 9 6 2 1 3 3 2 5 6 3 3 2 3 4 4 3 2 3 4 3 5 3 5 3 2 3 1 3 4 5 3 4 3 5
18 21 22 24 25 27 27 27 27 26 21 9 6 5 3 1 2 2 2 4 8 2 2 2 2 1 4 3 2 1 3 3 7 5 4 5 4 3 5 2 2 1 4 4 5 3 4
17 19 21 23 24 27 29 29 28 26 23 11 4 1 2 3 3 2 4 6 4 3 3 3 1 2 2 0 2 3 4 2 3 5 5 4 1 1 2 2 2 1 1 3 5 3 3
17 19 20 22 24 26 27 30 30 28 21 10 2 2 2 2 2 3 5 4 1 3 4 2 2 1 2 3 1 2 2 3 0 1 0 1 4 0 1 1 1 1 2 3 3 3 3
16 18 20 22 25 25 26 29 30 29 23 5 2 3 3 1 3 5 4 3 3 1 1 2 5 2 3 2 2 2 1 2 4 3 2 1 3 2 2 4 6 1 0 2 3 4 4
15 16 19 21 23 25 26 28 30 29 25 5 2 4 2 2 4 3 3 3 3 3 4 1 2 5 3 5 4 3 3 2 4 3 1 2 4 3 4 0 1 1 3 4 4 4 2
13 17 20 21 22 25 27 29 29 28 18 1 2 1 3 4 4 2 1 3 3 5 4 6 3 2 1 2 3 2 4 2 5 3 2 1 1 2 6 4 3 3 4 2 4 3 5
11 15 19 22 22 23 25 29 32 32 23 1 3 3 4 4 1 6 3 2 2 3 2 2 3 3 2 3 5 3 2 1 2 2 0 1 1 4 6 3 4 3 4 4 5 3 3
12 14 16 20 22 22 23 26 31 34 33 3 3 2 4 3 5 4 4 1 3 1 1 1 4 4 4 3 3 2 2 1 1 1 1 3 3 0 4 5 3 6 6 8 8 7 7
10 13 15 17 20 21 21 24 28 34 28 4 2 2 3 2 2 4 3 1 1 2 1 2 4 3 2 3 2 0 1 2 3 1 1 3 3 2 4 3 7 6 8 9 12 11 10
8 12 15 16 18 17 20 21 24 31 16 3 3 2 3 3 1 3 1 2 2 1 3 1 1 2 1 3 1 2 2 3 3 6 5 4 3 2 4 2 3 7 9 11 6 5 8
7 10 13 15 16 16 16 17 19 23 17 2 0 1 3 3 1 2 3 2 3 1 1 1 2 1 0 4 4 1 4 5 4 3 3 3 3 2 3 3 2 5 0 2 8 3 7
6 8 10 12 13 13 13 13 15 16 19 3 2 3 2 2 2 1 3 3 5 3 2 1 1 2 2 2 2 3 2 2 2 4 3 2 3 1 2 3 6 4 1 2 5 1 4
4 6 8 9 9 11 12 12 12 12 15 3 1 2 3 2 3 4 2 2 2 2 0 3 1 1 2 2 2 2 4 3 2 0 4 2 4 3 0 3 5 2 1 1 1 2 4
1 3 4 7 9 10 11 11 12 12 11 3 1 3 2 2 3 2 2 3 1 1 1 1 2 1 3 2 2 3 4 2 3 5 5 3 1 5 4 3 7 2 1 2 2 3 3
3 1 2 4 6 8 10 12 12 12 12 4 2 3 3 0 4 2 0 1 1 2 3 2 3 2 2 3 3 3 3 2 2 4 5 6 6 4 3 4 8 0 1 4 3 3 4
8 5 3 3 5 6 8 9 10 11 12 6 0 3 1 2 4 2 2 1 1 2 3 1 3 3 4 1 1 1 1 1 2 3 0 2 5 3 7 4 1 3 1 3 3 4 0
Wind_Direction
17 16 13 12 8 4 358 356 2 8 12 20 25 33 48 52 67 66 78 80 80 68 79 92 128 129 144 119 260 151 137 175 170 152 227 232 194 185 223 186 155 176 142 71 102 60 67
19 16 12 12 12 9 1 355 3 3 17 15 37 26 29 53 76 73 82 80 76 75 84 100 113 72 135 158 250 163 183 174 214 182 226 217 190 254 291 188 156 169 104 125 126 88 54
19 19 14 12 12 12 6 0 355 2 7 14 6 19 24 49 78 94 99 94 81 75 112 104 48 357 19 195 332 301 180 195 208 197 244 225 288 28 342 137 146 134 95 80 178 171 125
19 16 15 14 13 11 7 9 356 2 0 5 1 357 8 56 101 133 126 102 53 85 121 108 15 24 245 235 290 278 189 238 223 209 242 230 66 264 271 232 59 101 82 120 243 156 213
18 15 15 15 17 12 8 12 5 358 354 345 350 350 331 16 123 170 201 153 137 118 216 302 347 40 100 115 256 225 186 170 153 206 293 312 33 138 16 89 51 0 178 167 210 199 157
18 15 14 15 17 13 10 7 6 357 348 339 349 352 318 326 185 234 207 196 199 223 282 268 253 252 223 165 152 309 202 164 161 129 70 78 46 57 22 70 182 190 208 175 173 219 191
16 14 13 13 16 15 9 8 3 358 344 341 340 332 328 299 266 203 122 95 57 287 250 208 297 217 70 52 45 265 14 146 113 136 117 203 75 164 242 231 267 210 230 128 144 201 158
15 12 9 9 8 12 12 6 3 358 344 335 332 327 319 290 261 160 171 210 155 180 300 244 245 185 58 82 124 60 21 161 137 156 125 41 115 274 284 256 279 352 168 80 82 171 136
13 12 8 5 4 6 10 8 6 360 350 333 332 335 325 314 226 111 165 132 348 20 131 15 132 97 281 12 68 299 355 176 144 89 93 127 213 307 321 33 49 22 102 157 143 160 32
13 10 9 5 2 359 359 6 7 4 356 342 329 341 346 344 213 208 131 109 194 103 74 339 349 5 324 61 30 262 310 117 44 106 93 78 314 339 43 73 3 78 332 51 66 84 191
16 13 11 8 5 356 354 358 6 3 354 351 336 334 346 37 283 272 108 278 239 80 60 299 335 306 314 76 160 344 309 35 85 71 90 280 23 21 58 343 317 154 57 74 55 91 67
15 12 9 7 5 0 355 353 356 1 353 348 346 327 333 38 46 1 344 333 62 43 324 355 308 330 78 29 43 302 33 40 150 72 44 103 85 59 77 357 34 148 71 32 41 73 43
9 10 6 2 358 358 355 355 355 359 357 345 347 348 348 354 220 335 11 41 41 85 293 357 326 13 87 22 52 45 63 35 111 86 25 35 18 9 25 27 340 66 64 1 358 8 214
7 2 2 0 357 353 352 352 356 358 354 344 325 1 15 38 360 56 63 59 69 260 36 253 287 39 77 9 26 32 130 71 25 65 109 137 329 4 342 70 170 102 145 153 200 193 258
2 360 358 357 358 356 352 350 352 358 356 333 326 43 92 311 346 76 79 51 162 185 266 358 266 61 65 75 122 88 65 76 30 15 119 133 335 209 50 341 76 216 38 172 109 9 59
356 355 356 358 356 356 354 351 350 353 2 345 84 36 315 313 16 61 74 114 79 315 329 296 78 73 89 19 90 108 81 322 90 30 80 156 95 234 245 359 327 198 199 59 359 163 253
352 354 355 355 351 352 352 351 350 352 353 41 23 63 261 128 71 48 100 119 116 271 319 9 358 42 96 134 73 75 62 332 22 322 348 67 106 277 62 205 187 111 249 70 114 144 173
348 351 350 350 348 349 350 351 350 354 349 64 8 47 282 73 47 37 43 354 339 345 4 309 68 33 35 25 43 89 130 62 339 334 90 33 121 159 226 114 39 259 231 157 129 220 216
347 347 347 346 348 347 348 349 350 354 3 60 49 304 2 72 86 29 307 38 50 18 13 1 27 11 48 97 108 78 86 359 16 40 144 293 184 51 341 352 355 231 226 172 112 79 214
355 354 351 351 350 349 349 348 348 349 353 132 82 19 333 31 121 126 128 90 27 350 20 5 349 321 351 45 21 131 108 112 12 86 278 76 83 162 194 200 133 210 226 191 132 133 192
356 360 2 356 353 349 350 351 349 349 349 104 29 192 181 347 347 10 111 171 148 99 94 345 24 47 11 10 18 70 122 144 353 145 186 116 199 90 265 250 233 218 208 191 193 203 183
359 357 358 356 353 350 352 355 356 354 350 74 85 68 357 176 296 343 11 334 120 179 113 195 141 180 151 126 120 55 142 204 234 8 1 14 308 32 297 257 205 249 239 219 228 242 249
359 355 350 351 353 354 353 357 5 6 14 63 334 2 94 274 69 98 288 359 341 4 328 45 54 42 196 171 189 205 190 200 176 159 188 156 139 90 271 318 351 289 245 207 197 198 203
352 354 350 346 348 351 355 357 3 15 25 113 219 79 65 290 74 175 164 133 155 88 5 186 9 8 242 338 320 319 322 294 284 251 151 159 139 130 264 18 219 251 19 296 197 253 214
345 352 356 349 348 346 351 359 2 8 14 77 14 76 71 252 233 193 159 175 150 158 194 145 84 182 303 337 26 349 348 330 244 31 133 117 133 225 213 222 287 253 204 190 177 156 6
335 352 355 357 357 5 9 19 11 11 12 57 47 147 102 97 272 307 178 197 215 214 297 168 178 170 115 109 100 205 229 220 218 295 21 73 97 140 252 223 248 282 222 69 114 253 36
292 351 347 6 11 16 17 17 12 6 12 49 299 49 84 147 268 20 188 186 195 128 219 145 184 114 46 107 167 201 251 180 192 188 174 133 178 205 230 266 284 327 178 330 134 229 92
218 277 340 346 2 23 25 25 18 4 7 49 290 39 110 205 285 316 86 163 8 105 157 233 36 329 82 160 169 243 202 266 336 158 179 171 155 205 177 219 271 3 52 199 152 94 128
208 201 229 303 346 19 24 20 17 13 4 5 333 349 90 151 238 259 313 345 313 188 153 248 191 173 202 120 233 133 234 222 176 257 307 233 194 188 195 225 80 355 75 86 107 117 126